Location: DARK SKY Beskydy - Park tmavé oblohy, www.darkskybeskydy.cz
(49.4926°N, 18.5016°E)
Time: 03:04:50
(UTC+02:00)

A-11 Canister half - Pass Details

Date: 29 February 2024
Orbit: 1513 x 1686 km, 47.2° (Epoch: 24 April)

Event Time Altitude Azimuth Distance (km) Brightness Sun altitude
Rises 01:57:34 0° 246° (WSW) 4,935 - -41.5°
Reaches altitude 10° 02:00:45 10° 245° (WSW) 3,947 - -41.1°
Maximum altitude 02:10:51 71° 164° (SSE) 1,748 - -40.0°
Exits shadow 02:12:29 62° 114° (ESE) 1,839 9.2 -39.8°
Drops below altitude 10° 02:20:44 10° 83° (E) 3,874 11.6 -38.8°
Sets 02:23:49 0° 81° (E) 4,840 12.3 -38.5°
